Regional Weather Roundup
Issued by NWS

Home | Current Version | Previous Version | Text Only | Print | Product List | Glossary Off
Versions: 1 2 3 4 5 6 7 8 9 10 11 12 13 14 15 16 17 18 19 20 21 22 23 24 25 26 27 28 29 30 31 32 33 34 35 36 37 38 39 40 41 42 43 44 45 46 47 48 49 50

000
ASUS43 KFSD 221110
RWRSD

WEATHER ROUNDUP FOR SOUTH DAKOTA
NATIONAL WEATHER SERVICE SIOUX FALLS SD
600 AM CDT MON SEP 22 2014

NOTE: "FAIR" INDICATES FEW OR NO CLOUDS BELOW 12,000 FEET WITH NO
SIGNIFICANT WEATHER AND/OR OBSTRUCTIONS TO VISIBILITY.


SDZ001>005-009-010-012>017-221200-
NORTHWEST AND NORTH CENTRAL SOUTH DAKOTA

CITY           SKY/WX    TMP DP  RH WIND       PRES   REMARKS
BUFFALO          N/A     48  36  63 E3        30.05F
FAITH            N/A     48  39  71 SE15      30.14F
MOBRIDGE       CLEAR     49  47  93 S8        30.17F
$$

SDZ012>016-024>037-041>051-057-063-072>074-221200-
SOUTHWEST AND SOUTH CENTRAL SOUTH DAKOTA

CITY           SKY/WX    TMP DP  RH WIND       PRES   REMARKS
RAPID CTY ARPT PTCLDY    49  39  68 SE9       30.14F
PIERRE         CLEAR     48  40  73 SE7       30.19F
CUSTER         MOCLDY    53  37  54 SW5       30.23F
ELLSWORTH AFB  PTCLDY    53  39  57 E5        30.13F
PHILIP         CLEAR     45  38  76 NE3       30.17F
PINE RIDGE     MOCLDY    61  39  44 S17G30    30.16F
WINNER         FAIR      52  43  71 S12       30.23F
$$

SDZ004>011-016>023-039-040-221200-
NORTHEAST SOUTH DAKOTA

CITY           SKY/WX    TMP DP  RH WIND       PRES   REMARKS
ABERDEEN       CLEAR     39  38  96 SE6       30.23S
WATERTOWN      CLEAR     44  42  93 SE6       30.25S
SISSETON         N/A     53  48  83 W8        30.21S
$$

SDZ017-020-022-023-036>040-048>070-221200-
SOUTHEAST SOUTH DAKOTA

CITY           SKY/WX    TMP DP  RH WIND       PRES   REMARKS
SIOUX FALLS    CLEAR     45  43  93 CALM      30.27F
HURON          CLEAR     44  41  89 SE5       30.24S
CHAMBERLAIN    CLEAR     45  42  88 S3        30.24F
MITCHELL       CLEAR     44  42  93 S3        30.26S
YANKTON          N/A     45  43  93 CALM      30.28F VSB 3/4
$$

ABBREVIATIONS USED IN REMARKS
   TC - TEMPERATURE IN CELSIUS
  WCI - WIND CHILL INDEX
   HX - HEAT INDEX
  VSB - VISIBILITY




USA.gov is the U.S. government's official web portal to all federal, state and local government web resources and services.